Weather Service Report


921 
ASCA42 TJSJ 260110
RWRPR 
PUERTO RICO/U.S. VIRGIN ISLANDS HOURLY WEATHER ROUNDUP
NATIONAL WEATHER SERVICE SAN JUAN PR
900 PM AST SUN SEP 25 2016

PRZ001>002-007>008-010-260200-
PUERTO RICO
  
CITY           SKY/WX    TMP DP  RH WIND       PRES   REMARKS
SAN JUAN LMM   PTCLDY    82  75  78 E7        29.98R                  
AGUADILLA      PTCLDY    79  73  83 CALM      29.99R                  
CEIBA          MOCLDY    82  75  78 NE7       30.00R                  
$$

VIZ001>002-260200-
U.S. VIRGIN ISLANDS
  
CITY           SKY/WX    TMP DP  RH WIND       PRES   REMARKS
CHARLOTTE AMA  PTCLDY    84  75  74 NE10      29.97R HX  92           
$$

HOURLY WEATHER ROUNDUP FOR THE NEWS MEDIA
  
CITY           SKY/WX    TMP DP  RH WIND       PRES   REMARKS
ORLANDO        CLEAR     79  73  82 E7        30.00R                  
NEW YORK       PTCLDY    62  39  42 CALM      30.17R                  
NEWARK         PTCLDY    66  38  35 NW6       30.16R                  
CHICAGO        MOCLDY    74  69  85 CALM      29.90S                  
HARTFORD       CLEAR     46  41  82 CALM      30.15R                  
BOSTON         CLEAR     58  35  42 N9        30.17R                  
DALLAS         CLOUDY    77  72  84 VRB3      30.04R                  
PHILADELPHIA   PTCLDY    69  41  36 NW6       30.16S                  
LOS ANGELES    CLEAR     79  52  38 W14       29.88F                  
WASHINGTON DC  PTCLDY    60  51  72 CALM      30.16R                  

Return to Home page


Western Regional Climate Center, wrcc@dri.edu